TA3MHA Weather Reports


time (UTC)temp
F
wind
direction
speed
knots
gust
knots
rain 1hr
in
rain 24hr
in
rain mn
in
humidity
%
barometer
mb
20260507174501 64 92 0.9 0.9 0.00 0.00 0.00 56
20260507174001 64 24 1.7 1.7 0.00 0.00 0.00 56
20260507173500 65 76 1.7 2.6 0.00 0.00 0.00 55
20260507173000 65 14 2.6 3.5 0.00 0.00 0.00 54
20260507172503 65 30 1.7 2.6 0.00 0.00 0.00 54
20260507172001 66 176 0.0 0.0 0.00 0.00 0.00 54
20260507171505 66 12 1.7 1.7 0.00 0.00 0.00 51
20260507171000 67 44 1.7 1.7 0.00 0.00 0.00 48
20260507170501 68 320 0.0 0.9 0.00 0.00 0.00 42
20260507170000 68 232 1.7 1.7 0.00 0.00 0.00 42
20260507165509 68 253 2.6 2.6 0.00 0.00 0.00 44
20260507165003 68 191 0.9 1.7 0.00 0.00 0.00 46
20260507164500 68 325 2.6 5.2 0.00 0.00 0.00 43
20260507164000 68 269 1.7 3.5 0.00 0.00 0.00 47
20260507163504 68 345 2.6 4.3 0.00 0.00 0.00 49
20260507163008 69 242 2.6 2.6 0.00 0.00 0.00 48
20260507162501 69 12 1.7 2.6 0.00 0.00 0.00 46
20260507162002 70 247 1.7 2.6 0.00 0.00 0.00 44
20260507161500 71 355 1.7 1.7 0.00 0.00 0.00 42
20260507161001 71 255 3.5 3.5 0.00 0.00 0.00 40
20260507160500 72 257 0.9 1.7 0.00 0.00 0.00 37
20260507160000 72 279 2.6 2.6 0.00 0.00 0.00 36
20260507155500 73 284 2.6 2.6 0.00 0.00 0.00 36
20260507155000 74 291 2.6 3.5 0.00 0.00 0.00 34
20260507154500 75 256 3.5 4.3 0.00 0.00 0.00 32
20260507154000 74 213 3.5 4.3 0.00 0.00 0.00 34
20260507153500 74 257 1.7 2.6 0.00 0.00 0.00 35
20260507153001 74 265 1.7 1.7 0.00 0.00 0.00 33
20260507152500 74 235 0.9 1.7 0.00 0.00 0.00 33
20260507152001 74 244 4.3 4.3 0.00 0.00 0.00 33
20260507151500 75 186 1.7 3.5 0.00 0.00 0.00 33
20260507151000 75 173 0.0 3.5 0.00 0.00 0.00 31
20260507150500 76 222 0.0 1.7 0.00 0.00 0.00 31
20260507150000 76 251 5.2 5.2 0.00 0.00 0.00 32
20260507145500 76 211 2.6 4.3 0.00 0.00 0.00 31
20260507145000 75 223 3.5 4.3 0.00 0.00 0.00 33
20260507144500 74 211 4.3 5.2 0.00 0.00 0.00 34
20260507144000 74 216 3.5 4.3 0.00 0.00 0.00 34
20260507143500 74 254 1.7 2.6 0.00 0.00 0.00 34
20260507143000 74 237 2.6 4.3 0.00 0.00 0.00 34
20260507142500 74 251 3.5 5.2 0.00 0.00 0.00 34
20260507142001 75 252 7.0 7.0 0.00 0.00 0.00 33
20260507141501 74 241 2.6 3.5 0.00 0.00 0.00 35
20260507141000 74 239 5.2 7.8 0.00 0.00 0.00 32
20260507140501 74 239 7.0 7.0 0.00 0.00 0.00 32
20260507140000 75 251 4.3 5.2 0.00 0.00 0.00 33
20260507135501 75 260 5.2 7.0 0.00 0.00 0.00 33
20260507135000 76 249 5.2 6.1 0.00 0.00 0.00 33
20260507134501 76 269 5.2 5.2 0.00 0.00 0.00 33
20260507134001 76 233 4.3 5.2 0.00 0.00 0.00 32
20260507133500 76 222 5.2 6.1 0.00 0.00 0.00 31
20260507133000 77 271 2.6 3.5 0.00 0.00 0.00 31
20260507132500 76 253 3.5 4.3 0.00 0.00 0.00 30
20260507132002 76 227 2.6 3.5 0.00 0.00 0.00 30
20260507131501 77 225 3.5 4.3 0.00 0.00 0.00 30
20260507131000 77 230 4.3 4.3 0.00 0.00 0.00 28
20260507130500 77 229 5.2 5.2 0.00 0.00 0.00 28
20260507130001 77 226 7.0 7.0 0.00 0.00 0.00 29
20260507125500 77 272 3.5 4.3 0.00 0.00 0.00 30
20260507125001 77 267 6.1 7.0 0.00 0.00 0.00 28
20260507124501 77 273 3.5 3.5 0.00 0.00 0.00 27
20260507124008 77 240 7.0 7.8 0.00 0.00 0.00 27
20260507123501 77 266 3.5 5.2 0.00 0.00 0.00 25
20260507123000 78 274 2.6 3.5 0.00 0.00 0.00 28
20260507122500 79 242 7.8 8.7 0.00 0.00 0.00 26
20260507122001 79 237 7.8 7.8 0.00 0.00 0.00 25
20260507121501 80 191 6.1 6.1 0.00 0.00 0.00 24
20260507121001 79 185 3.5 5.2 0.00 0.00 0.00 26
20260507120500 79 219 5.2 7.8 0.00 0.00 0.00 26
20260507120000 80 191 4.3 7.8 0.00 0.00 0.00 24
20260507115500 79 170 1.7 1.7 0.00 0.00 0.00 24
20260507115000 79 233 6.1 11.3 0.00 0.00 0.00 25
20260507114500 80 232 3.5 6.1 0.00 0.00 0.00 24
20260507114000 79 254 6.1 8.7 0.00 0.00 0.00 25
20260507113501 79 256 3.5 4.3 0.00 0.00 0.00 25
20260507113000 80 214 3.5 4.3 0.00 0.00 0.00 25
20260507112500 80 175 7.0 7.8 0.00 0.00 0.00 25
20260507112000 79 214 3.5 4.3 0.00 0.00 0.00 23
20260507111500 79 192 1.7 4.3 0.00 0.00 0.00 24
20260507111000 80 216 4.3 7.0 0.00 0.00 0.00 24
20260507110500 80 287 5.2 5.2 0.00 0.00 0.00 25
20260507110000 78 182 3.5 7.0 0.00 0.00 0.00 26
20260507105500 78 200 7.0 9.6 0.00 0.00 0.00 26
20260507105000 77 213 4.3 6.1 0.00 0.00 0.00 25
20260507104500 78 182 1.7 4.3 0.00 0.00 0.00 24
20260507104000 78 236 6.1 7.8 0.00 0.00 0.00 25
20260507103500 79 170 5.2 5.2 0.00 0.00 0.00 26
20260507103000 78 172 1.7 5.2 0.00 0.00 0.00 25
20260507102500 78 194 7.8 8.7 0.00 0.00 0.00 24
20260507102001 78 181 3.5 5.2 0.00 0.00 0.00 26
20260507101500 79 174 7.0 7.8 0.00 0.00 0.00 27
20260507101000 77 244 4.3 4.3 0.00 0.00 0.00 24
20260507100500 78 201 1.7 1.7 0.00 0.00 0.00 27
20260507100000 78 217 3.5 6.1 0.00 0.00 0.00 26
20260507095500 78 201 3.5 4.3 0.00 0.00 0.00 28
20260507095000 78 191 2.6 3.5 0.00 0.00 0.00 28
20260507094500 78 213 6.1 7.0 0.00 0.00 0.00 28
20260507094000 78 191 5.2 9.6 0.00 0.00 0.00 27
20260507093500 78 355 2.6 5.2 0.00 0.00 0.00 27
20260507093000 77 273 3.5 4.3 0.00 0.00 0.00 30
20260507092501 77 212 0.0 3.5 0.00 0.00 0.00 28
20260507092000 77 264 7.8 7.8 0.00 0.00 0.00 29
20260507091500 78 213 3.5 5.2 0.00 0.00 0.00 28
20260507091000 77 182 7.0 7.8 0.00 0.00 0.00 30
20260507090500 77 182 7.0 7.8 0.00 0.00 0.00 27
20260507090001 77 194 4.3 7.8 0.00 0.00 0.00 30
20260507085500 77 230 2.6 3.5 0.00 0.00 0.00 32
20260507085000 76 274 3.5 5.2 0.00 0.00 0.00 30
20260507084500 77 254 6.1 6.1 0.00 0.00 0.00 29
20260507084000 76 192 6.1 7.8 0.00 0.00 0.00 31
20260507083500 76 238 1.7 3.5 0.00 0.00 0.00 31
20260507083000 75 227 3.5 4.3 0.00 0.00 0.00 29
20260507082500 76 256 2.6 5.2 0.00 0.00 0.00 30
20260507082000 76 262 4.3 4.3 0.00 0.00 0.00 29
20260507081500 76 279 3.5 3.5 0.00 0.00 0.00 31
20260507081000 76 180 4.3 6.1 0.00 0.00 0.00 29
20260507080500 76 234 2.6 5.2 0.00 0.00 0.00 32
20260507080000 76 249 6.1 7.8 0.00 0.00 0.00 30
20260507075500 76 247 4.3 4.3 0.00 0.00 0.00 31
20260507075000 75 191 2.6 4.3 0.00 0.00 0.00 33
20260507074500 73 355 3.5 3.5 0.00 0.00 0.00 39
20260507074000 72 8 2.6 2.6 0.00 0.00 0.00 47
20260507073500 73 10 1.7 1.7 0.00 0.00 0.00 37
20260507073000 71 276 1.7 5.2 0.00 0.00 0.00 47
20260507072500 70 352 5.2 5.2 0.00 0.00 0.00 49
20260507072000 69 33 3.5 4.3 0.00 0.00 0.00 49
20260507071500 69 358 3.5 4.3 0.00 0.00 0.00 50
20260507071000 69 6 5.2 5.2 0.00 0.00 0.00 51
20260507070500 68 14 1.7 2.6 0.00 0.00 0.00 50
20260507070000 68 17 2.6 2.6 0.00 0.00 0.00 49
20260507065500 68 3 1.7 2.6 0.00 0.00 0.00 50
20260507065000 68 7 3.5 3.5 0.00 0.00 0.00 50
20260507064500 68 13 0.9 1.7 0.00 0.00 0.00 52
20260507064000 68 18 2.6 2.6 0.00 0.00 0.00 52
20260507063500 67 26 1.7 3.5 0.00 0.00 0.00 54
20260507063000 66 317 0.0 0.9 0.00 0.00 0.00 53
20260507062500 66 0 2.6 2.6 0.00 0.00 0.00 54
20260507062002 67 5 1.7 2.6 0.00 0.00 0.00 54
20260507061502 68 350 1.7 1.7 0.00 0.00 0.00 52
20260507061000 69 82 1.7 2.6 0.00 0.00 0.00 51
20260507060500 68 42 1.7 1.7 0.00 0.00 0.00 53
20260507060000 66 165 0.0 0.0 0.00 0.00 0.00 53
20260507055500 66 210 0.0 0.9 0.00 0.00 0.00 54
20260507055000 64 304 0.0 0.9 0.00 0.00 0.00 57
20260507054500 64 269 0.9 1.7 0.00 0.00 0.00 56
20260507054000 63 219 0.0 1.7 0.00 0.00 0.00 57
20260507053500 63 227 0.9 0.9 0.00 0.00 0.00 57
20260507053000 63 235 0.0 0.9 0.00 0.00 0.00 57
20260507052500 63 333 0.0 0.9 0.00 0.00 0.00 59
20260507052000 62 32 0.0 0.0 0.00 0.00 0.00 57
20260507051500 61 324 0.0 0.0 0.00 0.00 0.00 58
20260507051000 59 249 0.0 0.0 0.00 0.00 0.00 64
20260507050500 58 31 0.0 0.9 0.00 0.00 0.00 67
20260507050000 58 305 0.9 0.9 0.00 0.00 0.00 65
20260507045500 58 288 0.9 1.7 0.00 0.00 0.00 67
20260507045000 58 267 0.0 0.0 0.00 0.00 0.00 65
20260507044500 59 275 0.9 1.7 0.00 0.00 0.00 64
20260507044000 60 303 0.0 0.9 0.00 0.00 0.00 55
20260507043500 59 285 0.0 0.0 0.00 0.00 0.00 63
20260507043000 58 237 0.0 0.0 0.00 0.00 0.00 60
20260507042500 57 167 0.0 0.0 0.00 0.00 0.00 65
20260507042000 54 49 0.9 0.9 0.00 0.00 0.00 69
20260507041500 52 86 0.9 0.9 0.00 0.00 0.00 73
20260507041000 51 84 0.0 0.0 0.00 0.00 0.00 73
20260507040500 52 310 0.0 0.9 0.00 0.00 0.00 70
20260507040000 52 278 0.0 0.0 0.00 0.00 0.00 69
20260507035500 51 4 0.0 0.0 0.00 0.00 0.00 71
20260507035000 51 269 0.0 0.0 0.00 0.00 0.00 71
20260507034500 51 296 0.9 1.7 0.00 0.00 0.00 70
20260507034000 52 230 0.0 0.0 0.00 0.00 0.00 69
20260507033500 52 117 0.0 0.9 0.00 0.00 0.00 69
20260507033000 51 85 0.9 0.9 0.00 0.00 0.00 68
20260507032500 50 184 0.0 0.0 0.00 0.00 0.00 70
20260507032000 49 260 1.7 1.7 0.00 0.00 0.00 72
20260507031500 49 146 0.0 0.9 0.00 0.00 0.00 74
20260507031000 49 49 0.0 0.9 0.00 0.00 0.00 75
20260507030500 49 103 1.7 1.7 0.00 0.00 0.00 76
20260507030000 48 130 0.9 0.9 0.00 0.00 0.00 79
20260507025500 47 142 1.7 1.7 0.00 0.00 0.00 80
20260507025000 48 293 0.0 0.9 0.00 0.00 0.00 78
20260507024500 49 327 0.0 0.9 0.00 0.00 0.00 75
20260507024000 50 302 0.0 1.7 0.00 0.00 0.00 71
20260507023500 51 217 0.0 0.0 0.00 0.00 0.00 70
20260507023000 50 142 0.0 0.0 0.00 0.00 0.00 72
20260507022500 50 56 1.7 1.7 0.00 0.00 0.00 73
20260507022000 49 178 1.7 1.7 0.00 0.00 0.00 75
20260507021500 49 275 0.9 1.7 0.00 0.00 0.00 76
20260507021000 49 271 0.9 1.7 0.00 0.00 0.00 77
20260507020500 49 165 0.0 0.9 0.00 0.00 0.00 76
20260507020000 49 297 1.7 2.6 0.00 0.00 0.00 78
20260507015501 48 148 0.9 0.9 0.00 0.00 0.00 79
20260507015000 49 276 1.7 1.7 0.00 0.00 0.00 78
20260507014501 49 62 0.0 0.0 0.00 0.00 0.00 77
20260507014000 50 281 0.9 0.9 0.00 0.00 0.00 75
20260507013500 50 283 0.0 0.9 0.00 0.00 0.00 74
20260507013001 49 262 0.0 0.9 0.00 0.00 0.00 76
20260507012501 49 124 0.0 0.0 0.00 0.00 0.00 77
20260507012001 49 334 1.7 1.7 0.00 0.00 0.00 79
20260507011500 48 298 1.7 1.7 0.00 0.00 0.00 79
20260507011000 49 212 0.0 0.0 0.00 0.00 0.00 79
20260507010500 49 303 2.6 3.5 0.00 0.00 0.00 78
20260507010000 48 149 1.7 1.7 0.00 0.00 0.00 81
20260507005500 48 170 0.9 1.7 0.00 0.00 0.00 80
20260507005000 49 263 0.0 1.7 0.00 0.00 0.00 78
20260507004500 51 293 0.0 0.9 0.00 0.00 0.00 74
20260507004000 51 358 0.0 0.0 0.00 0.00 0.00 71
20260507003500 52 241 0.0 0.9 0.00 0.00 0.00 71
20260507003000 51 269 0.9 1.7 0.00 0.00 0.00 72
20260507002500 51 4 0.9 1.7 0.00 0.00 0.00 73
20260507002000 51 358 1.7 1.7 0.00 0.00 0.00 72
20260507001500 51 34 2.6 2.6 0.00 0.00 0.00 74
20260507001000 50 45 2.6 2.6 0.00 0.00 0.00 77
20260507000500 51 329 2.6 3.5 0.00 0.00 0.00 75
20260507000000 51 322 1.7 1.7 0.00 0.00 0.00 73
20260506235500 51 166 1.7 1.7 0.00 0.00 0.00 75
20260506235000 50 150 0.9 1.7 0.00 0.00 0.00 77
20260506234500 50 114 0.0 1.7 0.00 0.00 0.00 77
20260506234000 50 152 0.9 0.9 0.00 0.00 0.00 76
20260506233500 52 315 1.7 1.7 0.00 0.00 0.00 72
20260506233000 52 242 0.0 0.9 0.00 0.00 0.00 72
20260506232500 51 81 0.0 0.0 0.00 0.00 0.00 75
20260506232001 51 153 0.0 0.0 0.00 0.00 0.00 75
20260506231500 51 282 1.7 1.7 0.00 0.00 0.00 75
20260506231000 51 237 0.0 1.7 0.00 0.00 0.00 75
20260506230500 50 339 0.0 0.0 0.00 0.00 0.00 76
20260506230000 50 25 0.0 0.9 0.00 0.00 0.00 77
20260506225500 50 117 0.0 0.0 0.00 0.00 0.00 76
20260506225000 51 308 0.9 0.9 0.00 0.00 0.00 75
20260506224500 51 322 0.0 0.0 0.00 0.00 0.00 75
20260506224000 51 299 0.0 0.0 0.00 0.00 0.00 74
20260506223500 51 70 1.7 1.7 0.00 0.00 0.00 74
20260506223000 51 54 2.6 2.6 0.00 0.00 0.00 74
20260506222500 52 311 0.0 0.0 0.00 0.00 0.00 72
20260506222001 53 269 0.0 0.0 0.00 0.00 0.00 71
20260506221500 53 351 0.9 0.9 0.00 0.00 0.00 71
20260506221001 52 148 1.7 1.7 0.00 0.00 0.00 73
20260506220500 52 146 1.7 2.6 0.00 0.00 0.00 73
20260506220000 52 337 0.0 0.0 0.00 0.00 0.00 73
20260506215500 52 184 0.0 0.9 0.00 0.00 0.00 73
20260506215000 51 301 1.7 1.7 0.00 0.00 0.00 75
20260506214500 51 307 1.7 1.7 0.00 0.00 0.00 75
20260506214000 52 296 0.9 1.7 0.00 0.00 0.00 73
20260506213500 52 334 0.0 0.0 0.00 0.00 0.00 71
20260506213000 52 89 0.0 0.0 0.00 0.00 0.00 72
20260506212501 52 37 0.0 0.0 0.00 0.00 0.00 72
20260506212000 52 153 1.7 1.7 0.00 0.00 0.00 72
20260506211500 51 185 0.9 1.7 0.00 0.00 0.00 76
20260506211000 51 194 1.7 2.6 0.00 0.00 0.00 77
20260506210502 51 214 2.6 2.6 0.00 0.00 0.00 74
20260506210000 53 230 3.5 4.3 0.00 0.00 0.00 69
20260506205500 55 105 1.7 2.6 0.00 0.00 0.00 65
20260506205000 56 101 4.3 5.2 0.00 0.00 0.00 63
20260506204500 56 135 2.6 3.5 0.00 0.00 0.00 62
20260506204000 55 99 2.6 3.5 0.00 0.00 0.00 63
20260506203500 55 25 0.0 0.0 0.00 0.00 0.00 64
20260506203000 55 11 2.6 2.6 0.00 0.00 0.00 64
20260506202500 54 16 3.5 3.5 0.00 0.00 0.00 66
20260506202000 54 338 1.7 1.7 0.00 0.00 0.00 66
20260506201500 55 18 1.7 1.7 0.00 0.00 0.00 64
20260506201000 55 62 3.5 3.5 0.00 0.00 0.00 65
20260506200500 54 160 1.7 2.6 0.00 0.00 0.00 69
20260506200000 54 57 0.0 0.9 0.00 0.00 0.00 69
20260506195500 54 188 1.7 3.5 0.00 0.00 0.00 68
20260506195000 54 220 1.7 1.7 0.00 0.00 0.00 70
20260506194500 54 6 0.0 0.9 0.00 0.00 0.00 71
20260506194000 54 11 1.7 2.6 0.00 0.00 0.00 69
20260506193500 55 328 2.6 2.6 0.00 0.00 0.00 68
20260506193000 55 172 0.9 1.7 0.00 0.00 0.00 67
20260506192500 55 212 0.9 1.7 0.00 0.00 0.00 68
20260506192000 54 278 0.0 0.9 0.00 0.00 0.00 69
20260506191500 54 284 0.0 1.7 0.00 0.00 0.00 70
20260506191000 54 330 1.7 3.5 0.00 0.00 0.00 69
20260506190501 54 318 1.7 3.5 0.00 0.00 0.00 70
20260506190001 55 312 3.5 3.5 0.00 0.00 0.00 69
20260506185500 55 242 0.0 0.0 0.00 0.00 0.00 68
20260506185000 56 342 0.9 1.7 0.00 0.00 0.00 67
20260506184501 56 324 1.7 1.7 0.00 0.00 0.00 66
20260506184000 56 217 0.0 0.0 0.00 0.00 0.00 66
20260506183500 56 211 0.0 0.9 0.00 0.00 0.00 66
20260506183000 56 141 1.7 1.7 0.00 0.00 0.00 65
20260506182500 57 164 0.0 0.9 0.00 0.00 0.00 65
20260506182001 56 62 0.0 0.0 0.00 0.00 0.00 66
20260506181501 57 0 1.7 1.7 0.00 0.00 0.00 67
20260506181000 57 269 0.0 0.0 0.00 0.00 0.00 66
20260506180500 58 167 0.0 0.9 0.00 0.00 0.00 64
20260506180001 58 159 1.7 3.5 0.00 0.00 0.00 63
20260506175500 58 158 2.6 3.5 0.00 0.00 0.00 63
20260506175000 59 162 1.7 1.7 0.00 0.00 0.00 62